Location: Bourg-d�Oueil
(42.8588°N, 0.4991°E)
Time: 18:00:04
(UTC+00:00)

Aureole 1 Rocket - Pass Details

Date: 16 June 2021
Orbit: 377 x 1372 km, 73.9° (Epoch: 31 July)

Event Time Altitude Azimuth Distance (km) Brightness Sun altitude
Rises 21:27:33 0° 341° (NNW) 3,291 8.3 -15.2°
Reaches altitude 10° 21:29:43 10° 344° (NNW) 2,493 7.3 -15.4°
Maximum altitude 21:35:35 73° 69° (ENE) 1,076 4.1 -16.0°
Enters shadow 21:40:18 24° 150° (SSE) 2,199 5.2 -16.5°
